Home > Products > Valid Products > MTR

000
SAUS45 KTWC 241552
MTRSAD
METAR KSAD 241551Z AUTO 15008KT 10SM CLR 19/09 A3021 RMK AO2 SLP196
T01940094





000
SAUS45 KTWC 241453
MTRSAD
METAR KSAD 241451Z AUTO 15005KT 10SM CLR 16/09 A3020 RMK AO2 SLP192
T01610094 53018





000
SAUS45 KTWC 241352
MTRSAD
METAR KSAD 241351Z AUTO 09003KT 10SM CLR 12/09 A3017 RMK AO2 SLP188
T01170094





000
SAUS45 KTWC 241253
MTRSAD
METAR KSAD 241251Z AUTO 00000KT 10SM CLR 12/09 A3015 RMK AO2 SLP176
T01170089





000
SAUS45 KTWC 241152
MTRSAD
METAR KSAD 241151Z AUTO 00000KT 10SM CLR 13/09 A3014 RMK AO2 SLP167
T01280094 10167 20122 53001





000
SAUS45 KTWC 241052
MTRSAD
METAR KSAD 241051Z AUTO 00000KT 10SM CLR 14/09 A3013 RMK AO2 SLP164
T01390094





000
SAUS45 KTWC 241052
MTRSAD
METAR KSAD 241051Z AUTO 00000KT 10SM CLR 14/09 A3013 RMK AO2 SLP164
T01390094





000
SAUS45 KTWC 240952
MTRSAD
METAR KSAD 240951Z AUTO 12005KT 10SM CLR 15/09 A3013 RMK AO2 SLP160
T01500094





000
SAUS45 KTWC 240852
MTRSAD
METAR KSAD 240851Z AUTO 14007KT 10SM CLR 15/10 A3013 RMK AO2 SLP163
T01500100 53006





000
SAUS45 KTWC 240752
MTRSAD
METAR KSAD 240751Z AUTO 00000KT 10SM CLR 15/09 A3013 RMK AO2 SLP162
T01500094





000
SAUS45 KTWC 240652
MTRSAD
METAR KSAD 240651Z AUTO 00000KT 10SM CLR 16/11 A3012 RMK AO2 SLP159
T01560106 402890117





000
SAUS45 KTWC 240553
MTRSAD
METAR KSAD 240551Z AUTO 00000KT 10SM CLR 17/11 A3011 RMK AO2 SLP159
T01670106 10278 20167 51010





000
SAUS45 KTWC 240452
MTRSAD
METAR KSAD 240451Z AUTO 00000KT 10SM CLR 18/11 A3011 RMK AO2 SLP157
T01780106





000
SAUS45 KTWC 240452
MTRSAD
METAR KSAD 240451Z AUTO 00000KT 10SM CLR 18/11 A3011 RMK AO2 SLP157
T01780106





000
SAUS45 KTWC 240352
MTRSAD
METAR KSAD 240351Z AUTO 09005KT 10SM CLR 18/11 A3009 RMK AO2 SLP153
T01830111





000
SAUS45 KTWC 240352
MTRSAD
METAR KSAD 240351Z AUTO 09005KT 10SM CLR 18/11 A3009 RMK AO2 SLP153
T01830111





000
SAUS45 KTWC 240252
MTRSAD
METAR KSAD 240251Z AUTO 07004KT 10SM CLR 20/11 A3008 RMK AO2 SLP152
T02000106 51010





000
SAUS45 KTWC 240252
MTRSAD
METAR KSAD 240251Z AUTO 07004KT 10SM CLR 20/11 A3008 RMK AO2 SLP152
T02000106 51010





000
SAUS45 KTWC 240152
MTRSAD
METAR KSAD 240151Z AUTO 02006KT 10SM CLR 21/11 A3007 RMK AO2 SLP152
T02110111





000
SAUS45 KTWC 240152
MTRSAD
METAR KSAD 240151Z AUTO 02006KT 10SM CLR 21/11 A3007 RMK AO2 SLP152
T02110111





000
SAUS45 KTWC 240052
MTRSAD
METAR KSAD 240051Z AUTO 00000KT 10SM CLR 26/09 A3006 RMK AO2 SLP144
T02560089





000
SAUS45 KTWC 232353
MTRSAD
METAR KSAD 232351Z AUTO 22003KT 10SM CLR 28/08 A3005 RMK AO2 SLP137
T02780078 10289 20239 56010





000
SAUS45 KTWC 232252
MTRSAD
METAR KSAD 232251Z AUTO 14003KT 10SM CLR 28/08 A3005 RMK AO2 SLP134
T02830078





000
SAUS45 KTWC 232152
MTRSAD
METAR KSAD 232151Z AUTO VRB05KT 10SM CLR 29/07 A3006 RMK AO2 SLP138
T02890072





000
SAUS45 KTWC 232152
MTRSAD
METAR KSAD 232151Z AUTO VRB05KT 10SM CLR 29/07 A3006 RMK AO2 SLP138
T02890072





000
SAUS45 KTWC 232052
MTRSAD
METAR KSAD 232051Z AUTO 17003KT 10SM CLR 28/08 A3008 RMK AO2 SLP145
T02780083 58025





000
SAUS45 KTWC 231952
MTRSAD
METAR KSAD 231951Z AUTO 00000KT 10SM CLR 27/09 A3011 RMK AO2 SLP155
T02720094





000
SAUS45 KTWC 231952
MTRSAD
METAR KSAD 231951Z AUTO 00000KT 10SM CLR 27/09 A3011 RMK AO2 SLP155
T02720094





000
SAUS45 KTWC 231853
MTRSAD
METAR KSAD 231851Z AUTO 10003KT 10SM CLR 26/10 A3014 RMK AO2 SLP165
T02610100





000
SAUS45 KTWC 231853
MTRSAD
METAR KSAD 231851Z AUTO 10003KT 10SM CLR 26/10 A3014 RMK AO2 SLP165
T02610100





000
SAUS45 KTWC 231753
MTRSAD
METAR KSAD 231751Z AUTO 14006KT 10SM CLR 24/10 A3016 RMK AO2 SLP175
T02440100 10244 20117 50004





000
SAUS45 KTWC 231753
MTRSAD
METAR KSAD 231751Z AUTO 14006KT 10SM CLR 24/10 A3016 RMK AO2 SLP175
T02440100 10244 20117 50004





000
SAUS45 KTWC 231653
MTRSAD
METAR KSAD 231651Z AUTO 14009KT 10SM CLR 22/10 A3017 RMK AO2 SLP178
T02220100





000
SAUS45 KTWC 231653
MTRSAD
METAR KSAD 231651Z AUTO 14009KT 10SM CLR 22/10 A3017 RMK AO2 SLP178
T02220100





000
SAUS45 KTWC 231552
MTRSAD
METAR KSAD 231551Z AUTO 13010KT 10SM CLR 20/10 A3017 RMK AO2 SLP179
T02000100





000
SAUS45 KTWC 231552
MTRSAD
METAR KSAD 231551Z AUTO 13010KT 10SM CLR 20/10 A3017 RMK AO2 SLP179
T02000100





000
SAUS45 KTWC 231452
MTRSAD
METAR KSAD 231451Z AUTO 00000KT 10SM CLR 16/11 A3015 RMK AO2 SLP176
T01610106 53016





000
SAUS45 KTWC 231452
MTRSAD
METAR KSAD 231451Z AUTO 00000KT 10SM CLR 16/11 A3015 RMK AO2 SLP176
T01610106 53016





000
SAUS45 KTWC 231352
MTRSAD
METAR KSAD 231351Z AUTO 20004KT 10SM CLR 13/10 A3013 RMK AO2 SLP172
T01280100





000
SAUS45 KTWC 231252
MTRSAD
METAR KSAD 231251Z AUTO 02003KT 10SM CLR 12/10 A3011 RMK AO2 SLP163
T01220100





000
SAUS45 KTWC 231152
MTRSAD
METAR KSAD 231151Z AUTO 00000KT 10SM CLR 12/10 A3010 RMK AO2 SLP155
T01220100 10172 20122 53002





000
SAUS45 KTWC 231052
MTRSAD
METAR KSAD 231051Z AUTO 00000KT 10SM CLR 14/10 A3009 RMK AO2 SLP150
T01390100





000
SAUS45 KTWC 230952
MTRSAD
METAR KSAD 230951Z AUTO 00000KT 10SM CLR 13/11 A3008 RMK AO2 SLP150
T01280106





000
SAUS45 KTWC 230952
MTRSAD
METAR KSAD 230951Z AUTO 00000KT 10SM CLR 13/11 A3008 RMK AO2 SLP150
T01280106





000
SAUS45 KTWC 230852
MTRSAD
METAR KSAD 230851Z AUTO 00000KT 10SM CLR 14/11 A3009 RMK AO2 SLP151
T01390111 53007





000
SAUS45 KTWC 230752
MTRSAD
METAR KSAD 230751Z AUTO 31003KT 10SM CLR 15/11 A3008 RMK AO2 SLP148
T01500111





000
SAUS45 KTWC 230752
MTRSAD
METAR KSAD 230751Z AUTO 31003KT 10SM CLR 15/11 A3008 RMK AO2 SLP148
T01500111





000
SAUS45 KTWC 230653
MTRSAD
METAR KSAD 230651Z AUTO 00000KT 10SM CLR 16/11 A3007 RMK AO2 SLP144
T01560111 402780133





000
SAUS45 KTWC 230552
MTRSAD
METAR KSAD 230551Z AUTO 00000KT 10SM CLR 17/12 A3007 RMK AO2 SLP143
T01670117 10267 20167 51008





000
SAUS45 KTWC 230552
MTRSAD
METAR KSAD 230551Z AUTO 00000KT 10SM CLR 17/12 A3007 RMK AO2 SLP143
T01670117 10267 20167 51008





000
SAUS45 KTWC 230452
MTRSAD
METAR KSAD 230451Z AUTO 07004KT 10SM CLR 17/12 A3007 RMK AO2 SLP143
T01720117





000
SAUS45 KTWC 230452
MTRSAD
METAR KSAD 230451Z AUTO 07004KT 10SM CLR 17/12 A3007 RMK AO2 SLP143
T01720117





000
SAUS45 KTWC 230352
MTRSAD
METAR KSAD 230351Z AUTO 11005KT 10SM CLR 18/12 A3005 RMK AO2 SLP137
T01830117





000
SAUS45 KTWC 230352
MTRSAD
METAR KSAD 230351Z AUTO 11005KT 10SM CLR 18/12 A3005 RMK AO2 SLP137
T01830117





000
SAUS45 KTWC 230252
MTRSAD
METAR KSAD 230251Z AUTO 00000KT 10SM CLR 21/11 A3004 RMK AO2 SLP137
T02060106 52012





000
SAUS45 KTWC 230152
MTRSAD
METAR KSAD 230151Z AUTO 03003KT 10SM CLR 21/12 A3003 RMK AO2 SLP135
T02110117





000
SAUS45 KTWC 230152
MTRSAD
METAR KSAD 230151Z AUTO 03003KT 10SM CLR 21/12 A3003 RMK AO2 SLP135
T02110117





000
SAUS45 KTWC 230052
MTRSAD
METAR KSAD 230051Z AUTO 00000KT 10SM CLR 24/09 A3001 RMK AO2 SLP124
T02440094





000
SAUS45 KTWC 230052
MTRSAD
METAR KSAD 230051Z AUTO 00000KT 10SM CLR 24/09 A3001 RMK AO2 SLP124
T02440094





000
SAUS45 KTWC 222352
MTRSAD
METAR KSAD 222351Z AUTO 24004KT 10SM CLR 27/09 A3000 RMK AO2 SLP118
T02670089 10278 20233 58004





000
SAUS45 KTWC 222352
MTRSAD
METAR KSAD 222351Z AUTO 24004KT 10SM CLR 27/09 A3000 RMK AO2 SLP118
T02670089 10278 20233 58004





000
SAUS45 KTWC 222252
MTRSAD
METAR KSAD 222251Z AUTO 21004KT 10SM CLR 27/09 A3001 RMK AO2 SLP120
T02670089





000
SAUS45 KTWC 222252
MTRSAD
METAR KSAD 222251Z AUTO 21004KT 10SM CLR 27/09 A3001 RMK AO2 SLP120
T02670089





000
SAUS45 KTWC 222152
MTRSAD
METAR KSAD 222151Z AUTO VRB05KT 10SM CLR 27/09 A3001 RMK AO2 SLP121
T02670089





000
SAUS45 KTWC 222052
MTRSAD
METAR KSAD 222051Z AUTO 23006KT 10SM CLR 27/09 A3001 RMK AO2 SLP121
T02670094 56022





000
SAUS45 KTWC 221953
MTRSAD
METAR KSAD 221951Z AUTO VRB03KT 10SM CLR 26/11 A3004 RMK AO2 SLP130
T02610111





000
SAUS45 KTWC 221852
MTRSAD
METAR KSAD 221851Z AUTO 12005KT 10SM CLR 25/12 A3006 RMK AO2 SLP138
T02500117





000
SAUS45 KTWC 221752
MTRSAD
METAR KSAD 221751Z AUTO 14008KT 10SM CLR 23/12 A3009 RMK AO2 SLP149
T02330117 10233 20133 50000





000
SAUS45 KTWC 221752
MTRSAD
METAR KSAD 221751Z AUTO 14008KT 10SM CLR 23/12 A3009 RMK AO2 SLP149
T02330117 10233 20133 50000





000
SAUS45 KTWC 221652
MTRSAD
METAR KSAD 221651Z AUTO 15010KT 10SM CLR 22/11 A3009 RMK AO2 SLP151
T02220111





000
SAUS45 KTWC 221652
MTRSAD
METAR KSAD 221651Z AUTO 15010KT 10SM CLR 22/11 A3009 RMK AO2 SLP151
T02220111





000
SAUS45 KTWC 221552
MTRSAD
METAR KSAD 221551Z AUTO 12009KT 10SM CLR 20/11 A3008 RMK AO2 SLP151
T02000111





000
SAUS45 KTWC 221455
MTRSAD
METAR KSAD 221451Z AUTO 00000KT 10SM CLR 17/12 A3008 RMK AO2 SLP153
T01670122 53026





000
SAUS45 KTWC 221353
MTRSAD
METAR KSAD 221351Z AUTO 12004KT 10SM CLR 14/11 A3004 RMK AO2 SLP140
T01440111





000
SAUS45 KTWC 221252
MTRSAD
METAR KSAD 221251Z AUTO 10005KT 10SM CLR 15/11 A3002 RMK AO2 SLP130
T01500111





000
SAUS45 KTWC 221152
MTRSAD
METAR KSAD 221151Z AUTO 11007KT 10SM CLR 16/11 A3000 RMK AO2 SLP119
T01560111 10172 20150 53004





000
SAUS45 KTWC 221052
MTRSAD
METAR KSAD 221051Z AUTO 10007KT 10SM CLR 16/11 A2999 RMK AO2 SLP115
T01560111





000
SAUS45 KTWC 220952
MTRSAD
METAR KSAD 220951Z AUTO 09006KT 10SM CLR 16/12 A2999 RMK AO2 SLP116
T01560117





000
SAUS45 KTWC 220952
MTRSAD
METAR KSAD 220951Z AUTO 09006KT 10SM CLR 16/12 A2999 RMK AO2 SLP116
T01560117





000
SAUS45 KTWC 220852
MTRSAD
METAR KSAD 220851Z AUTO 13005KT 10SM CLR 16/11 A2998 RMK AO2 SLP115
T01610111 52003





000
SAUS45 KTWC 220752
MTRSAD
METAR KSAD 220751Z AUTO 12006KT 10SM CLR 16/11 A2998 RMK AO2 SLP115
T01610111





000
SAUS45 KTWC 220652
MTRSAD
METAR KSAD 220651Z AUTO 12006KT 10SM CLR 17/12 A2998 RMK AO2 SLP113
T01670117 402610133





000
SAUS45 KTWC 220552
MTRSAD
METAR KSAD 220551Z AUTO 12004KT 10SM CLR 17/12 A2998 RMK AO2 SLP113
T01720122 10250 20172 51014





000
SAUS45 KTWC 220552
MTRSAD
METAR KSAD 220551Z AUTO 12004KT 10SM CLR 17/12 A2998 RMK AO2 SLP113
T01720122 10250 20172 51014





000
SAUS45 KTWC 220452
MTRSAD
METAR KSAD 220451Z AUTO 13005KT 10SM CLR 17/13 A2997 RMK AO2 SLP112
T01720128





000
SAUS45 KTWC 220452
MTRSAD
METAR KSAD 220451Z AUTO 13005KT 10SM CLR 17/13 A2997 RMK AO2 SLP112
T01720128





000
SAUS45 KTWC 220352
MTRSAD
METAR KSAD 220351Z AUTO 12006KT 10SM CLR 19/12 A2995 RMK AO2 SLP107
T01890122





000
SAUS45 KTWC 220252
MTRSAD
METAR KSAD 220251Z AUTO 00000KT 10SM CLR 19/13 A2993 RMK AO2 SLP101
T01940133 53009





000
SAUS45 KTWC 220252
MTRSAD
METAR KSAD 220251Z AUTO 00000KT 10SM CLR 19/13 A2993 RMK AO2 SLP101
T01940133 53009





000
SAUS45 KTWC 220152
MTRSAD
METAR KSAD 220151Z AUTO 00000KT 10SM CLR 21/12 A2992 RMK AO2 SLP099
T02110122





000
SAUS45 KTWC 220152
MTRSAD
METAR KSAD 220151Z AUTO 00000KT 10SM CLR 21/12 A2992 RMK AO2 SLP099
T02110122





000
SAUS45 KTWC 220052
MTRSAD
METAR KSAD 220051Z AUTO 00000KT 10SM CLR 23/11 A2991 RMK AO2 SLP092
T02280106





000
SAUS45 KTWC 212352
MTRSAD
METAR KSAD 212351Z AUTO 00000KT 10SM CLR 25/09 A2990 RMK AO2 SLP088
T02500089 10261 20217 56012





000
SAUS45 KTWC 212252
MTRSAD
METAR KSAD 212251Z AUTO 14005KT 10SM CLR 26/09 A2991 RMK AO2 SLP089
T02560089





000
SAUS45 KTWC 212252
MTRSAD
METAR KSAD 212251Z AUTO 14005KT 10SM CLR 26/09 A2991 RMK AO2 SLP089
T02560089





000
SAUS45 KTWC 212152
MTRSAD
METAR KSAD 212151Z AUTO 14006KT 10SM CLR 26/09 A2992 RMK AO2 SLP092
T02560094





000
SAUS45 KTWC 212152
MTRSAD
METAR KSAD 212151Z AUTO 14006KT 10SM CLR 26/09 A2992 RMK AO2 SLP092
T02560094





000
SAUS45 KTWC 212052
MTRSAD
METAR KSAD 212051Z AUTO 00000KT 10SM CLR 24/10 A2994 RMK AO2 SLP101
T02440100 58028





000
SAUS45 KTWC 211952
MTRSAD
METAR KSAD 211951Z AUTO VRB03KT 10SM CLR 24/10 A2997 RMK AO2 SLP111
T02390100





000
SAUS45 KTWC 211852
MTRSAD
METAR KSAD 211851Z AUTO 17009G15KT 10SM SCT045 BKN055 23/11 A3001
RMK AO2 SLP124 T02330106





000
SAUS45 KTWC 211752
MTRSAD
METAR KSAD 211751Z AUTO 14006KT 10SM CLR 21/12 A3003 RMK AO2 SLP133
T02110117 10217 20133 58002





000
SAUS45 KTWC 211652
MTRSAD
METAR KSAD 211651Z AUTO 14005KT 10SM CLR 20/11 A3004 RMK AO2 SLP140
T02000111





000
SAUS45 KTWC 211652
MTRSAD
METAR KSAD 211651Z AUTO 14005KT 10SM CLR 20/11 A3004 RMK AO2 SLP140
T02000111





    US Dept of Commerce
    National Oceanic and Atmospheric Administration
    National Weather Service
    1325 East West Highway
    Silver Spring, MD 20910
    Page Author: NWS Internet Services Team
Disclaimer
Information Quality
Credits
Glossary
Privacy Policy
Freedom of Information Act (FOIA)
About Us
Career Opportunities